This demonstration page uses our WeatherBlox Daily Observations layout. Learn more.

Left ArrowRight Arrow

41.55636, -103.73856

Hourly Observations for July 10, 2017

Temp ( °F °C ) Dew Point ( °F °C ) Humidity (%) Winds ( mph kmh ) Pressure ( in mb ) Visibility ( mi km ) Precip ( " mm )
12:53 am 00:53 Clear 70 21.1 55 12.8 59 59 Calm 29.81 1010 10 16 0.00 0.00
1:53 am 01:53 Clear 77 25 48 8.9 36 36 NNE 13 20 29.80 1009 10 16 0.00 0.00
2:53 am 02:53 Clear 76 24.4 51 10.6 42 42 Calm 29.80 1009 10 16 0.00 0.00
3:53 am 03:53 Clear 73 22.8 52 11.1 48 48 Calm 29.80 1009 10 16 0.00 0.00
4:53 am 04:53 Clear 69 20.6 51 10.6 53 53 Calm 29.81 1010 10 16 0.00 0.00
5:53 am 05:53 Sunny 66 18.9 52 11.1 61 61 undefined N/A 29.83 1010 10 16 0.00 0.00
6:53 am 06:53 Sunny 69 20.6 54 12.2 59 59 undefined N/A 29.84 1011 10 16 0.00 0.00
7:53 am 07:53 Sunny 71 21.7 56 13.3 59 59 undefined N/A 29.86 1011 10 16 0.00 0.00
8:53 am 08:53 Sunny 77 25 55 12.8 47 47 NE 7 11 29.86 1011 10 16 0.00 0.00
9:53 am 09:53 Sunny 80 26.7 55 12.8 42 42 undefined N/A 29.87 1011 10 16 0.00 0.00
10:53 am 10:53 Sunny 81 27.2 55 12.8 41 41 ESE 7 11 29.86 1011 10 16 0.00 0.00
11:53 am 11:53 Sunny 84 28.9 58 14.4 41 41 ESE 9 15 29.84 1011 10 16 0.00 0.00
12:53 pm 12:53 Sunny 88 31.1 57 13.9 35 35 SE 9 15 29.84 1010 10 16 0.00 0.00
1:53 pm 13:53 Sunny 87 30.6 57 13.9 36 36 ESE 8 13 29.80 1009 10 16 0.00 0.00
2:53 pm 14:53 Sunny 92 33.3 54 12.2 28 28 E 10 17 29.78 1008 10 16 0.00 0.00
3:53 pm 15:53 Sunny 94 34.4 51 10.6 23 23 E 9 15 29.75 1008 10 16 0.00 0.00
4:53 pm 16:53 Mostly Sunny 90 32.2 55 12.8 31 31 ESE 8 13 29.75 1007 10 16 0.00 0.00
5:12 pm 17:12 Mostly Cloudy with Nearby Thunderstorms 90 32 57 14 33 33 S 9 15 29.59 1002 10 16 0.00 0.00
5:53 pm 17:53 Sunny 83 28.3 58 14.4 43 43 SE 9 15 29.78 1008 10 16 0.00 0.00
6:53 pm 18:53 Mostly Sunny 83 28.3 60 15.6 46 46 SSE 7 11 29.80 1009 10 16 0.00 0.00
7:53 pm 19:53 Sunny 78 25.6 59 15 52 52 E 7 11 29.76 1008 10 16 0.00 0.00
8:53 pm 20:53 Clear 75 23.9 59 15 58 58 ESE 6 9 29.78 1008 10 16 0.00 0.00
9:53 pm 21:53 Clear 73 22.8 59 15 62 62 ESE 6 9 29.79 1009 10 16 0.00 0.00
10:53 pm 22:53 Clear 72 22.2 62 16.7 71 71 ESE 9 15 29.78 1008 10 16 0.00 0.00
11:53 pm 23:53 Clear 71 21.7 61 16.1 71 71 ESE 8 13 29.76 1008 10 16 0.00 0.00

Powered by AerisWeather